Location: Cointrin
(46.2167°N, 6.1167°E)
Time: 07:28:19
(UTC+00:00)

Cosmos 2322 Rocket - Visible Passes

Search period start: 24 September 2023 00:00
Search period end: 04 October 2023 00:00
Orbit: 833 x 849 km, 71.0° (Epoch: 23 September)

Date Brightness Start Highest point End Pass type
(mag) Time Alt. Az. Time Alt. Az. Time Alt. Az.
24 Sep 3.8 02:31:29 10° NNW 02:36:37 34° NE 02:41:44 10° ESE visible
24 Sep 2.5 04:15:27 10° NW 04:20:46 43° WSW 04:26:04 10° S visible
24 Sep 3.7 19:09:31 10° WSW 19:14:40 36° NW 19:19:51 10° NNE visible
25 Sep 3.8 02:16:22 10° NNW 02:21:26 33° NE 02:26:30 10° ESE visible
25 Sep 2.4 04:00:16 10° NW 04:05:37 45° WSW 04:10:59 10° S visible
25 Sep 3.7 18:54:17 10° WSW 18:59:29 38° NW 19:04:44 10° NNE visible
26 Sep 3.8 02:01:14 10° N 02:06:15 31° NE 02:11:15 10° ESE visible
26 Sep 2.3 03:45:05 10° NW 03:50:29 48° WSW 03:55:53 10° S visible
26 Sep 3.6 18:39:04 10° SW 18:44:18 40° NW 18:49:36 10° NNE visible
27 Sep 3.9 01:46:07 10° N 01:51:04 30° NE 01:56:00 10° ESE visible
27 Sep 2.3 03:29:54 10° NW 03:35:21 50° WSW 03:40:47 10° S visible
27 Sep 3.5 18:23:50 10° SW 18:29:07 41° NW 18:34:28 10° NNE visible
27 Sep 5.3 20:13:56 10° NW 20:14:49 10° NNW 20:15:42 10° NNW visible
28 Sep 3.9 01:30:59 10° N 01:35:53 29° NE 01:40:45 10° ESE visible
28 Sep 2.2 03:14:43 10° NW 03:20:12 53° WSW 03:25:41 10° S visible
28 Sep 3.5 18:08:37 10° SW 18:13:57 43° NW 18:19:19 10° NNE visible
28 Sep 5.2 19:58:17 10° NW 19:59:36 11° NNW 20:00:54 10° NNW visible
29 Sep 4.2 01:15:52 10° N 01:18:56 24° NNE 01:18:56 24° NNE visible
29 Sep 4.1 02:59:32 10° NW 03:12:01 - S 03:00:34 16° NW visible
29 Sep 3.4 17:53:24 10° SW 17:58:46 45° WNW 18:04:11 10° NNE visible
29 Sep 5.1 19:42:44 10° NW 19:44:22 11° NNW 19:45:59 10° NNW visible
30 Sep 4.6 01:00:44 10° N 01:02:21 17° N 01:02:21 17° N visible
30 Sep 3.3 17:38:11 10° SW 17:43:35 48° WNW 17:49:03 10° NNE visible
30 Sep 5.1 19:27:15 10° NW 19:29:08 12° NW 19:31:02 10° NNW visible
01 Oct 4.8 00:45:37 10° N 00:46:24 13° N 00:46:24 13° N visible
01 Oct 5.0 19:11:47 10° WNW 19:13:55 12° NW 19:16:03 10° NNW visible
02 Oct 5.0 00:30:30 10° N 00:30:46 11° N 00:30:46 11° N visible
02 Oct 4.9 18:56:21 10° WNW 18:58:41 12° NW 19:01:02 10° N visible
03 Oct 4.9 18:40:56 10° WNW 18:43:28 13° NW 18:46:00 10° N visible
